ATLAS CENTAUR 2

Last updated on Thu Nov 21 2024 00:02:11 GMT+0000 (Coordinated Universal Time)

1 00694U 63047A 24325.46322783 .00004107 00000+0 50052-3 0 9996 2 00694 30.3594 320.6419 0559742 229.1571 125.9192 14.09047941 64603
UTC large
Height (km)
Speed (km/s)
/
Latitude / Longitude
Inclination (degrees)
Orbital Period (minutes)
Azimuth
Elevation
Range (km)
Doppler Factor

Next 0 passes for location: London (51.5072 / 0.1276)

Sorry there are no passes over London.